Location: Observatoire
(46.1952°N, 5.3391°E)
Time: 04:00:34
(UTC+01:00)

Explorer 7 - Pass Details

Date: 19 February 2026
Orbit: 430 x 541 km, 50.2° (Epoch: 13 March)

Event Time Altitude Azimuth Distance (km) Brightness Sun altitude
Rises 21:58:03 0° 283° (WNW) 2,572 11.1 -39.1°
Enters shadow 21:59:09 - 276° (W) 2,212 10.6 -39.2°
Reaches altitude 10° 22:01:01 10° 258° (WSW) 1,713 - -39.5°
Maximum altitude 22:03:08 14° 225° (SW) 1,477 - -39.8°
Drops below altitude 10° 22:05:17 10° 192° (SSW) 1,742 - -40.1°
Sets 22:08:22 0° 167° (SSE) 2,648 - -40.6°
